Castlegar, British Columbia

6:54 PM PDT on May 24, 2017 (GMT -0700)
Castlegar

Weather History for CYCG - October, 2012

Change the Weather History Date:

Saturday, October 27, 2012

  Actual Average Record
Temperature  
Mean Temperature 52 °F -  
Max Temperature 66 °F 39 °F 66 °F (2012)
Min Temperature 39 °F 32 °F 24 °F (2007)
Degree Days  
Heating Degree Days 12    
Growing Degree Days 2 (Base 50)    
Moisture  
Dew Point 38 °F    
Average Humidity 87    
Maximum Humidity 100    
Minimum Humidity 37    
Precipitation  
Precipitation 0.00 in 0.11 in - ()
Sea Level Pressure  
Sea Level Pressure 30.05 in    
Wind  
Wind Speed 6 mph ()    
Max Wind Speed 12 mph    
Max Gust Speed -    
Visibility 9.7 miles    
Events Rain    
Averages and records for this station are not official NWS values.
T = Trace of Precipitation, MM = Missing Value Source: Averaged Metar Reports

Daily Weather History Graph

Daily Weather History Graph

Search for Another Location

Airport or City:

Trip Planner

Search our weather history database for the weather conditions in past years. The results will help you decide how hot, cold, wet, or windy it might be!

Date:

Astronomy

Oct. 27, 2012 Rise Set
Actual Time 7:31 AM PDT 5:36 PM PDT
Civil Twilight 6:58 AM PDT 6:09 PM PDT
Nautical Twilight 6:20 AM PDT 6:46 PM PDT
Astronomical Twilight 5:44 AM PDT 7:23 PM PDT
Moon 4:30 PM PDT (10/27) 5:23 AM PDT (10/27)
Length of Visible Light 11h 11m
Length of Day
10h 05m
Waxing Gibbous, 96% of the Moon is Illuminated
Oct 27
Waxing Gibbous
Oct 29
Full
Nov 6
Last Quarter
Nov 13
New
Nov 20
First Quarter

Hourly Weather History & Observations

Time (PDT) Temp. Windchill Dew Point Humidity Pressure Visibility Wind Dir Wind Speed Gust Speed Precip Events Conditions
5:00 AM 46 °F - 46 °F 97% 30.08 in - ENE 4.6 mph - -  
6:00 AM 37.4 °F 29.8 °F 35.6 °F 93% 30.09 in 5.0 mi SSE 11.5 mph - N/A   Overcast
7:00 AM 37.4 °F 29.8 °F 35.6 °F 93% 30.09 in 6.0 mi SSE 11.5 mph - N/A   Overcast
8:00 AM 37.4 °F 29.8 °F 35.6 °F 93% 30.10 in 10.0 mi SSE 11.5 mph - N/A Rain Light Rain
9:00 AM 39.2 °F 32.0 °F 37.4 °F 93% 30.10 in 10.0 mi SSE 11.5 mph - N/A   Mostly Cloudy
10:00 AM 39.2 °F 32.0 °F 37.4 °F 93% 30.09 in 10.0 mi SSE 11.5 mph - N/A   Overcast
11:00 AM 62 °F - 42 °F 37% 30.01 in - WSW 5.8 mph - -  
11:00 AM 39.2 °F 34.2 °F 37.4 °F 93% 30.09 in 15.0 mi SSE 6.9 mph - N/A Rain Light Rain Showers
12:00 PM 41.0 °F 37.1 °F 37.4 °F 87% 30.08 in 12.0 mi South 5.8 mph - N/A Rain Light Rain Showers
1:00 PM 41.0 °F 39.0 °F 37.4 °F 87% 30.07 in 12.0 mi South 3.5 mph - N/A Rain Light Rain Showers
2:00 PM 41.0 °F 39.0 °F 37.4 °F 87% 30.06 in 10.0 mi SSE 3.5 mph - N/A Rain Light Rain Showers
2:28 PM - - - N/A% - 10.0 mi SSE 4.6 mph - N/A Rain Light Rain Showers
3:00 PM 41.0 °F 37.1 °F 39.2 °F 93% 30.04 in 10.0 mi ESE 5.8 mph - N/A Rain Light Rain Showers
4:00 PM 41.0 °F - 37.4 °F 87% 30.03 in 10.0 mi SSE 2.3 mph - N/A Rain Light Rain Showers
5:00 PM 47 °F - 39 °F 67% 30.05 in - ENE 1.2 mph - -  
5:00 PM 41.0 °F - 37.4 °F 87% 30.02 in 10.0 mi East 2.3 mph - N/A Rain Light Rain Showers
6:00 PM 41.0 °F - 37.4 °F 87% 30.00 in 10.0 mi Calm Calm - N/A Rain Light Rain Showers
6:32 PM - - - N/A% - 10.0 mi SSE 3.5 mph - N/A   Overcast
7:00 PM 41.0 °F 38.0 °F 37.4 °F 87% 29.98 in 10.0 mi East 4.6 mph - N/A   Overcast
8:00 PM 41.0 °F - 37.4 °F 87% 29.97 in 10.0 mi Calm Calm - N/A Rain Light Rain Showers
9:00 PM 39.2 °F - 39.2 °F 100% 29.96 in 4.0 mi Calm Calm - N/A Rain Light Rain
11:00 PM 44 °F - 42 °F 88% 30.06 in - ENE 4.6 mph - -